Main page
METAR-TAF:

METAR-TAF

Airports :

Oil platform

K13-a, Netherlands

latitude: 53-13-04N, longitude: 3-13-13E, elevation: 31 m

Current weather observation

The report was made 39 minutes ago, at 08:25 UTC
Wind 15 kt from the Southwest
Temperature 17°C
Humidity 77%
Pressure 1025 hPa

METAR: EHJR 210825Z AUTO 23015KT //// // ///////// 17/13 Q1025 RE// W18/H7

Time: 11:04 (09:04 UTC)


TAF: missing

Weather observations and forecasts of more than 4000 airports (METAR and TAF reports).

The available stations are represented by yellow and red dots on the map.

Hover mouse over dot to see the name of the station.

Then click to see weather observations and forecasts.

To change the map : click on the green buttons with a black cross to zoom in, on the green button with a dash to zoom out, or on the green arrows for adjacent maps.


METAR-TAF: